星链-37929(STARLINK-37929)

导读

STARLINK-37929(NORAD编号69557)是美国太空探索技术公司(SpaceX)星链低轨互联网星座的组成卫星,由猎鹰9号运载火箭发射入轨。作为星链组网的现役节点,该卫星运行于近地轨道,承担全球互联网覆盖服务任务,设计寿命5年以上。截至2026年6月,SpaceX已累计发射超1.09万颗星链卫星,约9500颗在轨,其中8200余颗处于运营状态,该卫星是星链实现偏远地区网络覆盖、支撑“星链移动”直连服务的重要组成部分。

基本信息
目录编号:
69557
目录名称:
STARLINK-37929
国际标识:
2026-135M
轨道中心:
EARTH
卫星名称:
星链-37929
卫星全名:
星链-37929(STARLINK-37929)
卫星状态:
在轨 (已飞行81 天)
发射日期:
2026-06-15 UTC
国别 :
美国 (US)
星等 :
--
轨道信息
数据来源 国际轨道数据 AOE轨道数据
星历时间 2026-09-03T21:20:02+0800
14小时前
查看轨道信息
2026-09-02T05:00:00+0800
2天前
查看轨道信息
半长轴 6843.675km 6843.726km
偏心率 0.0001356 0.0001779
轨道倾角 97.284° 97.286°
近地点辐角 110.705° 84.928°
升交点赤经 274.486° 272.835°
平近点角 249.434° 3.787°
近地点 464.609km 464.371km
远地点 466.467km 466.807km
周期 93.906分钟 93.907分钟
每日圈数 15.334469 15.334296
详细信息
固有亮度:
5
最大亮度:
2.5
卫星平台:
Starlink V1.0
覆盖范围:
全球
运营商:
太空探索技术公司
运营商所在国:
美国
制造商(研发单位):
太空探索技术公司
制造商所在国:
美国
使用方式:
暂无
卫星简介
Starlink 计划是 SpaceX 推出的全球卫星互联网项目,通过发射低轨道卫星,为全球尤其是偏远地区提供高速、低延迟的互联网服务。自 2019 年起,Starlink 已部署数千颗卫星,旨在缩小全球数字鸿沟,推动互联网普及。该项目还为军事、航空等行业提供通信支持,带来广泛经济效益。
2D轨道图
3D轨道图
轨道高度分析图
轨道倾角分析图
轨道综合分析图
查看轨道综合分析图